EW4547 Weather Reports


time (UTC)temp
C
wind
direction
speed
KPH
gust
KPH
rain 1hr
cm
rain 24hr
cm
rain mn
cm
humidity
%
barometer
mb
20260508044845 11 355 0.0 0.0 0.00 2.82 0.00 94 1015.0
20260508043342 12 355 0.0 0.0 0.00 2.82 0.00 94 1015.0
20260508041833 12 355 1.6 3.2 0.00 2.82 0.00 94 1015.0
20260508040350 12 355 1.6 3.2 0.00 2.82 0.00 94 1014.7
20260508034830 12 18 1.6 4.8 0.00 2.82 2.82 94 1014.3
20260508033332 12 38 1.6 4.8 0.00 2.82 2.82 93 1014.1
20260508031852 12 51 1.6 3.2 0.00 2.82 2.82 93 1014.2
20260508030325 12 51 0.0 0.0 0.00 2.82 2.82 93 1014.0
20260508024824 12 51 0.0 1.6 0.00 2.82 2.82 93 1013.9
20260508023324 12 51 0.0 3.2 0.00 2.82 2.82 93 1013.8
20260508021908 12 51 1.6 4.8 0.00 2.82 2.82 93 1013.7
20260508020339 12 49 0.0 1.6 0.00 2.82 2.82 93 1013.7
20260508014825 12 49 0.0 3.2 0.05 2.82 2.82 93 1013.5
20260508013344 11 49 1.6 3.2 0.28 2.82 2.82 92 1012.9
20260508011836 11 49 0.0 3.2 0.28 2.82 2.82 92 1012.9
20260508010334 12 44 1.6 3.2 0.28 2.82 2.82 92 1012.8
20260508004848 12 355 3.2 4.8 0.20 2.74 2.74 92 1013.0
20260508003330 12 249 0.0 4.8 0.00 2.54 2.54 92 1012.8
20260508001844 12 70 4.8 14.5 0.00 2.54 2.54 92 1011.7
20260508000327 12 101 3.2 9.7 0.00 2.54 2.54 92 1011.8
20260507234853 12 341 6.4 12.9 0.00 2.54 2.54 92 1011.8
20260507233328 12 63 1.6 8.0 0.00 2.54 2.54 92 1011.9
20260507231856 12 39 4.8 12.9 0.00 2.54 2.54 92 1011.9
20260507230332 12 68 6.4 12.9 0.00 2.54 2.54 92 1011.5
20260507224846 12 80 9.7 16.1 0.00 2.54 2.54 92 1011.4
20260507223337 12 59 4.8 14.5 0.00 2.54 2.54 93 1011.4
20260507221828 12 77 4.8 14.5 0.00 2.54 2.54 92 1011.2
20260507220344 12 94 9.7 19.3 0.00 2.54 2.54 92 1011.2
20260507214834 12 38 8.0 16.1 0.00 2.54 2.54 92 1010.9
20260507213332 12 29 8.0 20.9 0.08 2.54 2.54 92 1010.8
20260507211845 13 90 9.7 20.9 0.25 2.54 2.54 92 1010.7
20260507210326 13 9 6.4 16.1 0.43 2.54 2.54 93 1010.4
20260507204836 13 76 3.2 9.7 0.58 2.54 2.54 93 1010.4
20260507203328 13 17 4.8 12.9 0.53 2.46 2.46 92 1010.1
20260507201848 14 46 4.8 16.1 0.36 2.29 2.29 92 1010.1
20260507200335 15 40 3.2 14.5 0.15 2.08 2.08 93 1010.0
20260507194848 15 105 3.2 19.3 0.03 1.96 1.96 92 1010.0
20260507193327 16 251 4.8 17.7 0.00 1.93 1.93 92 1009.9
20260507191846 16 294 4.8 17.7 0.00 1.93 1.93 93 1009.8
20260507190350 16 123 3.2 14.5 0.00 1.93 1.93 92 1009.3
20260507184834 17 85 4.8 14.5 0.00 1.93 1.93 92 1009.8
20260507183332 18 80 6.4 19.3 0.00 1.93 1.93 90 1009.1
20260507181849 21 200 3.2 6.4 0.00 1.93 1.93 95 1009.0
20260507180349 21 246 3.2 8.0 0.00 1.93 1.93 94 1009.5
20260507174909 21 234 6.4 12.9 0.00 1.93 1.93 94 1009.1
20260507173332 21 248 6.4 14.5 0.00 1.93 1.93 95 1008.9
20260507171850 20 241 3.2 8.0 0.00 1.93 1.93 94 1009.2
20260507170338 20 251 1.6 8.0 0.00 1.93 1.93 94 1009.6
20260507164846 20 220 4.8 9.7 0.00 1.93 1.93 94 1010.2
20260507163325 20 201 1.6 9.7 0.03 1.93 1.93 94 1010.3
20260507161845 20 221 4.8 9.7 0.08 1.93 1.93 94 1010.5
20260507160327 20 242 8.0 17.7 0.13 1.93 1.93 94 1010.3
20260507154827 20 209 4.8 9.7 0.25 1.93 1.93 94 1010.1
20260507153324 20 212 1.6 11.3 0.33 1.91 1.91 94 1010.3
20260507151909 19 194 4.8 17.7 0.36 1.85 1.85 94 1010.7
20260507150338 20 221 6.4 22.5 0.36 1.80 1.80 94 1011.0
20260507144830 20 228 8.0 19.3 0.28 1.65 1.65 94 1011.2
20260507143331 20 244 3.2 14.5 0.20 1.57 1.57 94 1011.2
20260507141849 20 197 3.2 12.9 0.13 1.50 1.50 93 1011.2
20260507140407 20 243 3.2 9.7 0.08 1.45 1.45 93 1011.2
20260507134827 20 197 3.2 9.7 0.00 1.37 1.37 93 1011.3
20260507133326 20 302 1.6 8.0 0.00 1.37 1.37 94 1011.0
20260507131843 20 216 4.8 12.9 0.00 1.37 1.37 94 1011.1
20260507130400 20 231 1.6 14.5 0.00 1.37 1.37 94 1010.8
20260507124849 20 257 3.2 9.7 0.00 1.37 1.37 94 1011.1
20260507123338 20 220 4.8 11.3 0.03 1.37 1.37 94 1011.2
20260507121828 20 244 3.2 6.4 0.03 1.37 1.37 93 1011.4
20260507120348 19 214 3.2 8.0 0.03 1.37 1.37 93 1011.5
20260507114846 19 238 3.2 6.4 0.05 1.37 1.37 93 1012.0
20260507113337 19 184 0.0 6.4 0.03 1.35 1.35 93 1011.9
20260507111828 19 219 3.2 8.0 0.05 1.35 1.35 93 1012.0
20260507110346 19 211 4.8 11.3 0.08 1.35 1.35 93 1011.8
20260507104838 19 225 4.8 9.7 0.05 1.32 1.32 92 1011.5
20260507103333 19 227 1.6 9.7 0.05 1.32 1.32 92 1011.5
20260507101846 19 239 3.2 8.0 0.05 1.30 1.30 92 1011.8
20260507100327 19 219 3.2 12.9 0.03 1.27 1.27 92 1011.3
20260507094827 19 204 3.2 12.9 0.15 1.27 1.27 92 1011.3
20260507093343 19 246 3.2 12.9 0.25 1.24 1.24 91 1011.2
20260507091846 19 254 6.4 12.9 0.28 1.24 1.24 92 1011.4
20260507090331 19 225 4.8 14.5 0.33 1.24 1.24 91 1011.5
20260507084849 19 217 4.8 14.5 0.25 1.12 1.12 91 1011.9
20260507083338 19 224 3.2 9.7 0.15 0.99 0.99 90 1012.3
20260507081843 19 257 0.0 6.4 0.13 0.97 0.97 89 1012.0
20260507080333 19 142 0.0 3.2 0.08 0.91 0.91 87 1012.2
20260507074859 19 141 0.0 3.2 0.03 0.86 0.86 87 1012.4
20260507073332 19 140 1.6 4.8 0.00 0.84 0.84 87 1012.1
20260507071849 19 227 0.0 1.6 0.00 0.84 0.84 87 1012.4
20260507070339 19 227 0.0 0.0 0.00 0.84 0.84 86 1012.7
20260507064843 19 227 0.0 1.6 0.00 0.84 0.84 85 1012.7
20260507063345 20 227 0.0 3.2 0.00 0.84 0.84 85 1013.0
20260507061826 20 227 1.6 4.8 0.20 0.84 0.84 87 1013.7
20260507060340 20 219 0.0 3.2 0.48 0.84 0.84 85 1012.9
20260507054846 20 219 0.0 6.4 0.81 0.84 0.84 86 1012.9
20260507053351 20 113 0.0 6.4 0.81 0.81 0.81 84 1012.7
20260507051831 20 225 1.6 6.4 0.61 0.61 0.61 85 1014.7
20260507050327 21 170 3.2 8.0 0.33 0.33 0.33 82 1014.8